When you browse on this site, cookies collect data to enhance your experience and personalize the content and advertising you see.
Visit our Privacy Policy to learn more. By continuing to use the site, you agree to this use of cookies and data.

Hourly Weather San Juan

Today, 7 August, Friday

Time Temperature Precipitation Wind Pressure Humidity
00:00 +8°C° 0 mm 0 mps 708 mmHg 48%
01:00 +8°C° 0 mm 0 mps 708 mmHg 50%
02:00 +7°C° 0 mm 0 mps 708 mmHg 50%
03:00 +8°C° 0 mm 1 mps 707 mmHg 50%
04:00 +8°C° 0 mm 1 mps 707 mmHg 50%
05:00 +8°C° 0 mm 1 mps 707 mmHg 49%
06:00 +8°C° 0 mm 1 mps 708 mmHg 47%
07:00 +8°C° 0 mm 2 mps 709 mmHg 44%
08:00 +10°C° 0 mm 2 mps 709 mmHg 39%
09:00 +12°C° 0 mm 2 mps 709 mmHg 35%
10:00 +14°C° 0 mm 2 mps 709 mmHg 30%
11:00 +14°C° 0 mm 3 mps 709 mmHg 29%
12:00 +16°C° 0 mm 3 mps 709 mmHg 27%
13:00 +17°C° 0 mm 3 mps 708 mmHg 26%
14:00 +17°C° 0 mm 2 mps 708 mmHg 26%
15:00 +17°C° 0 mm 2 mps 708 mmHg 26%
16:00 +17°C° 0 mm 2 mps 708 mmHg 26%
17:00 +16°C° 0 mm 2 mps 708 mmHg 29%
18:00 +14°C° 0 mm 2 mps 708 mmHg 32%
19:00 +13°C° 0 mm 1 mps 709 mmHg 34%
20:00 +12°C° 0 mm 1 mps 708 mmHg 36%
21:00 +11°C° 0 mm 1 mps 708 mmHg 38%
22:00 +10°C° 0 mm 0 mps 708 mmHg 40%
23:00 +9°C° 0 mm 0 mps 708 mmHg 41%

Tomorrow, 8 August, Saturday

Time Temperature Precipitation Wind Pressure Humidity
00:00 +9°C° 0 mm 0 mps 708 mmHg 42%
01:00 +8°C° 0 mm 0 mps 707 mmHg 43%
02:00 +8°C° 0 mm 0 mps 707 mmHg 44%
03:00 +8°C° 0 mm 0 mps 706 mmHg 44%
04:00 +9°C° 0 mm 1 mps 706 mmHg 45%
05:00 +9°C° 0 mm 1 mps 706 mmHg 44%
06:00 +9°C° 0 mm 1 mps 707 mmHg 43%
07:00 +10°C° 0 mm 1 mps 707 mmHg 42%
08:00 +12°C° 0 mm 1 mps 708 mmHg 37%
09:00 +14°C° 0 mm 1 mps 708 mmHg 32%
10:00 +16°C° 0 mm 1 mps 708 mmHg 28%
11:00 +19°C° 0 mm 1 mps 708 mmHg 26%
12:00 +20°C° 0 mm 1 mps 707 mmHg 24%
13:00 +21°C° 0 mm 1 mps 707 mmHg 23%
14:00 +21°C° 0 mm 1 mps 707 mmHg 23%
15:00 +21°C° 0 mm 1 mps 706 mmHg 22%
16:00 +22°C° 0 mm 1 mps 706 mmHg 22%
17:00 +20°C° 0 mm 1 mps 706 mmHg 25%
18:00 +19°C° 0 mm 1 mps 707 mmHg 28%
19:00 +16°C° 0 mm 1 mps 707 mmHg 31%
20:00 +16°C° 0 mm 2 mps 707 mmHg 31%
21:00 +16°C° 0 mm 2 mps 707 mmHg 30%
22:00 +16°C° 0 mm 3 mps 706 mmHg 30%
23:00 +16°C° 0 mm 2 mps 706 mmHg 31%

Day after tomorrow, 9 August, Sunday

Time Temperature Precipitation Wind Pressure Humidity
00:00 +15°C° 0 mm 2 mps 706 mmHg 31%
01:00 +15°C° 0 mm 2 mps 705 mmHg 32%
02:00 +14°C° 0 mm 2 mps 705 mmHg 32%
03:00 +14°C° 0 mm 2 mps 704 mmHg 33%
04:00 +14°C° 0 mm 2 mps 704 mmHg 33%
05:00 +14°C° 0 mm 2 mps 704 mmHg 33%
06:00 +14°C° 0 mm 1 mps 704 mmHg 33%
07:00 +14°C° 0 mm 1 mps 704 mmHg 32%
08:00 +18°C° 0 mm 1 mps 704 mmHg 27%
09:00 +20°C° 0 mm 2 mps 705 mmHg 23%
10:00 +24°C° 0 mm 2 mps 705 mmHg 18%
11:00 +26°C° 0 mm 2 mps 704 mmHg 16%
12:00 +28°C° 0 mm 3 mps 703 mmHg 13%
13:00 +30°C° 0 mm 3 mps 703 mmHg 11%
14:00 +30°C° 0 mm 3 mps 703 mmHg 11%
15:00 +30°C° 0 mm 2 mps 702 mmHg 11%
16:00 +30°C° 0 mm 2 mps 702 mmHg 11%
17:00 +27°C° 0 mm 2 mps 702 mmHg 14%
18:00 +25°C° 0 mm 2 mps 702 mmHg 17%
19:00 +21°C° 0 mm 3 mps 703 mmHg 20%
20:00 +20°C° 0 mm 4 mps 703 mmHg 22%
21:00 +19°C° 0 mm 5 mps 703 mmHg 25%
22:00 +19°C° 0 mm 6 mps 703 mmHg 27%
23:00 +16°C° 0 mm 6 mps 703 mmHg 30%

10 August, Monday

Time Temperature Precipitation Wind Pressure Humidity
00:00 +15°C° 0 mm 5 mps 703 mmHg 32%
01:00 +14°C° 0 mm 5 mps 703 mmHg 34%
02:00 +13°C° 0 mm 4 mps 703 mmHg 38%
03:00 +12°C° 0 mm 4 mps 702 mmHg 42%
04:00 +11°C° 0 mm 3 mps 702 mmHg 45%
05:00 +11°C° 0 mm 3 mps 703 mmHg 47%
06:00 +11°C° 0 mm 3 mps 703 mmHg 48%
07:00 +12°C° 0 mm 2 mps 704 mmHg 50%
08:00 +13°C° 0 mm 3 mps 704 mmHg 46%
09:00 +15°C° 0 mm 4 mps 704 mmHg 43%
10:00 +16°C° 0 mm 5 mps 704 mmHg 39%
11:00 +17°C° 0 mm 5 mps 704 mmHg 38%
12:00 +19°C° 0 mm 6 mps 704 mmHg 37%
13:00 +20°C° 0 mm 7 mps 704 mmHg 35%
14:00 +20°C° 0 mm 7 mps 704 mmHg 33%
15:00 +20°C° 0 mm 7 mps 704 mmHg 31%
16:00 +20°C° 0 mm 7 mps 705 mmHg 29%
17:00 +19°C° 0 mm 6 mps 705 mmHg 30%
18:00 +17°C° 0 mm 5 mps 706 mmHg 31%
19:00 +17°C° 0 mm 4 mps 707 mmHg 32%
20:00 +15°C° 0 mm 4 mps 707 mmHg 34%
21:00 +14°C° 0 mm 4 mps 707 mmHg 36%
22:00 +13°C° 0 mm 4 mps 707 mmHg 38%
23:00 +12°C° 0 mm 5 mps 707 mmHg 42%

11 August, Tuesday

Time Temperature Precipitation Wind Pressure Humidity
00:00 +10°C° 0 mm 5 mps 707 mmHg 46%
01:00 +9°C° 0 mm 6 mps 707 mmHg 50%
02:00 +8°C° 0 mm 5 mps 706 mmHg 48%
03:00 +7°C° 0 mm 5 mps 706 mmHg 47%
04:00 +6°C° 0 mm 5 mps 706 mmHg 45%
05:00 +6°C° 0 mm 4 mps 706 mmHg 45%
06:00 +7°C° 0 mm 3 mps 706 mmHg 44%
07:00 +7°C° 0 mm 3 mps 707 mmHg 44%
08:00 +8°C° 0 mm 3 mps 706 mmHg 40%
09:00 +9°C° 0 mm 3 mps 706 mmHg 36%
10:00 +11°C° 0 mm 3 mps 706 mmHg 32%
11:00 +13°C° 0 mm 2 mps 705 mmHg 31%
12:00 +14°C° 0 mm 2 mps 704 mmHg 30%
13:00 +15°C° 0 mm 2 mps 703 mmHg 29%
14:00 +15°C° 0 mm 2 mps 703 mmHg 30%
15:00 +15°C° 0 mm 1 mps 702 mmHg 30%
16:00 +16°C° 0 mm 1 mps 702 mmHg 30%
17:00 +14°C° 0 mm 2 mps 702 mmHg 31%
18:00 +13°C° 0 mm 2 mps 702 mmHg 33%
19:00 +12°C° 0 mm 2 mps 703 mmHg 35%
20:00 +12°C° 0 mm 2 mps 703 mmHg 36%
21:00 +10°C° 0 mm 2 mps 703 mmHg 37%
22:00 +10°C° 0 mm 3 mps 703 mmHg 38%
23:00 +9°C° 0 mm 2 mps 702 mmHg 40%

12 August, Wednesday

Time Temperature Precipitation Wind Pressure Humidity
00:00 +9°C° 0 mm 1 mps 702 mmHg 42%
01:00 +8°C° 0 mm 1 mps 701 mmHg 44%
02:00 +8°C° 0 mm 1 mps 701 mmHg 46%
03:00 +7°C° 0 mm 1 mps 701 mmHg 47%
04:00 +7°C° 0 mm 1 mps 700 mmHg 48%
05:00 +7°C° 0 mm 1 mps 700 mmHg 46%
06:00 +8°C° 0 mm 1 mps 700 mmHg 43%
07:00 +8°C° 0 mm 1 mps 700 mmHg 41%
08:00 +10°C° 0 mm 1 mps 700 mmHg 36%
09:00 +12°C° 0 mm 1 mps 700 mmHg 32%
10:00 +14°C° 0 mm 2 mps 700 mmHg 27%
11:00 +16°C° 0 mm 2 mps 699 mmHg 24%
12:00 +18°C° 0 mm 2 mps 699 mmHg 21%
13:00 +19°C° 0 mm 2 mps 698 mmHg 17%
14:00 +19°C° 0 mm 3 mps 698 mmHg 17%
15:00 +19°C° 0 mm 4 mps 697 mmHg 17%
16:00 +19°C° 0 mm 4 mps 697 mmHg 17%
17:00 +17°C° 0 mm 4 mps 697 mmHg 20%
18:00 +15°C° 0 mm 4 mps 697 mmHg 22%
19:00 +13°C° 0 mm 3 mps 698 mmHg 25%
20:00 +13°C° 0 mm 4 mps 698 mmHg 25%
21:00 +12°C° 0 mm 4 mps 698 mmHg 25%
22:00 +12°C° 0 mm 4 mps 698 mmHg 24%
23:00 +11°C° 0 mm 4 mps 698 mmHg 26%
Show more